[[{"header":{"parameterUnit":"m.s-1","parameterCategory":1,"la1":30.2991,"la2":30.254,"lo1":-89.0895,"lo2":-89.0444,"dy":0.0017,"dx":0.0017,"nx":28,"ny":28,"refTime":"2025-02-11T09:00:00:Z","depth":0,"parameterNumber":2,"parameterNumberName":"U-component_of_WINDS"},"data":[0,0,0,0,0,0,0,0,0,0,0,0,0,0,0,0,0,0,0,0,0,0,0,0,0,0,0,0,0,0,0,0,0,0,0,0,0,0,0,0,0,0,0,0,0,0,0,0,0,0,0,0,0,0,0,0,0,0,0.4085,0.4087,0,0.4238,0.424,0.4242,0.4256,0.4254,0.4253,0.4251,0.4415,0.442,0.4426,0,0,0,0,0,0,0,0,0,0,0,0,0,0.3813,0.3818,0.4085,0.4087,0.4089,0.4238,0.424,0.4242,0.4256,0.4254,0.4252,0.425,0.4413,0.442,0.4427,0,0,0,0,0,0,0,0,0,0,0,0,0,0.3945,0.382,0.4085,0.4114,0.4118,0.4237,0.424,0.4243,0.4257,0.4254,0.4252,0.425,0.441,0.4419,0.4428,0.4531,0,0,0.4455,0.4458,0,0,0,0,0,0,0,0,0.3938,0.3955,0.4108,0.4112,0.4117,0.4225,0.4204,0.4339,0.4257,0.4204,0.4251,0.4248,0.4354,0.4367,0.4402,0.4538,0.4545,0.4455,0.4461,0.4464,0.4467,0,0,0,0,0,0,0,0.3929,0.3949,0.4146,0.411,0.4116,0.4122,0.4138,0.423,0.4291,0.4209,0.421,0.4228,0.4356,0.4393,0.4406,0.4548,0.4455,0.4463,0.4468,0.4472,0.478,0.4783,0,0,0,0,0,0,0.3913,0.3941,0.4141,0.415,0.4019,0.4129,0.4147,0.4193,0.429,0.4302,0.4229,0.4228,0.4379,0.4395,0.4411,0.4541,0.4464,0.4473,0.4478,0.4777,0.4781,0.4784,0,0,0,0,0,0,0.3907,0.3931,0.4135,0.4046,0.4073,0.4136,0.4188,0.4197,0.4234,0.4306,0.4318,0.4255,0.4378,0.4399,0.4501,0.4547,0.4477,0.4485,0.4774,0.4778,0.4783,0.4799,0,0,0,0,0,0,0.3899,0.3928,0.3966,0.4047,0.4077,0.422,0.4191,0.4202,0.4249,0.4248,0.4333,0.4345,0.4378,0.4488,0.451,0.4557,0.4491,0.477,0.4776,0.4781,0.4795,0.4803,0.4811,0,0,0,0,0,0.3889,0.3966,0.3968,0.3992,0.4126,0.4222,0.424,0.4274,0.4252,0.4292,0.4339,0.4343,0.4537,0.4498,0.4523,0.4574,0.4768,0.4774,0.4781,0.4791,0.4802,0.481,0,0,0,0,0,0,0.3891,0.3977,0.398,0.4084,0.4146,0.4224,0.4276,0.4283,0.4354,0.435,0.4391,0.4411,0.4512,0.4553,0.4508,0.468,0.4651,0.4663,0.465,0.4661,0.4668,0.4658,0.4499,0,0,0,0,0,0.3903,0.3972,0.4044,0.4129,0.4159,0.4212,0.4256,0.4276,0.4342,0.4369,0.4423,0.4489,0.4565,0.4615,0.4689,0.48,0.4821,0.4847,0.4855,0.4862,0.4872,0.4937,0.495,0.4806,0.4806,0.4805,0,0,0.3929,0.3985,0.4026,0.4131,0.4181,0.4254,0.4234,0.4312,0.4368,0.4382,0.4482,0.4523,0.46,0.4708,0.4758,0.4745,0.4916,0.487,0.4874,0.4882,0.4945,0.4959,0.4971,0.481,0.4809,0.4809,0,0,0.4015,0.4062,0.414,0.419,0.4265,0.43,0.4319,0.4397,0.4425,0.4525,0.4538,0.4606,0.4735,0.479,0.4835,0.4943,0.4951,0.4966,0.5009,0.5071,0.5083,0.5093,0.5135,0.5149,0.4976,0.4976,0.4976,0,0.4039,0.4147,0.4179,0.4257,0.4304,0.4318,0.4399,0.4446,0.4543,0.4577,0.456,0.4725,0.4777,0.4899,0.4925,0.496,0.4985,0.4957,0.5078,0.5089,0.5099,0.5139,0.5154,0.4978,0.4977,0.4977,0.4977,0,0.4175,0.425,0.4304,0.4395,0.4448,0.4527,0.4573,0.4623,0.464,0.4677,0.4781,0.4844,0.4932,0.4962,0.4979,0.5088,0.5078,0.5069,0.5041,0.5114,0.5152,0.5168,0.498,0.4979,0.4979,0.4978,0,0,0.4266,0.4374,0.4394,0.4436,0.4521,0.4581,0.4662,0.4746,0.479,0.4856,0.4927,0.5037,0.503,0.5081,0.5105,0.5159,0.5244,0.5145,0.5147,0.5163,0.5371,0.5378,0.5395,0.5248,0.5251,0.5254,0.5365,0,0.4364,0.4505,0.4537,0.466,0.4732,0.4747,0.4818,0.4879,0.4916,0.4985,0.5027,0.5105,0.5088,0.512,0.5174,0.5222,0.5287,0.5214,0.5318,0.5321,0.53,0.5415,0.5422,0.5524,0.538,0.5382,0.5384,0,0.4496,0.4564,0.4694,0.4771,0.4802,0.4865,0.4946,0.501,0.5081,0.5105,0.5162,0.518,0.5268,0.5233,0.5356,0.5306,0.535,0.5381,0.5385,0.5398,0.5359,0.5433,0.5557,0.5573,0.5408,0.5406,0.5404,0,0.4553,0.4677,0.4772,0.4807,0.4899,0.4943,0.4984,0.5052,0.5101,0.5173,0.5206,0.5287,0.5332,0.5396,0.5437,0.5408,0.5558,0.5526,0.5583,0.5582,0.5616,0.5613,0.5751,0.564,0.564,0.5639,0.5639,0,0.466,0.4739,0.4799,0.4857,0.4948,0.4984,0.5074,0.5115,0.5175,0.5244,0.5262,0.5327,0.5376,0.5448,0.548,0.5579,0.5599,0.5623,0.5631,0.5622,0.562,0.5654,0.5649,0.5644,0.5643,0.5642,0.5641,0,0.4739,0.4782,0.4886,0.4964,0.4986,0.5049,0.5117,0.5176,0.5214,0.5301,0.5323,0.5384,0.547,0.5516,0.5624,0.5646,0.5757,0.576,0.5733,0.5737,0.5792,0.5787,0.5958,0.5984,0.5853,0.5855,0.5856,0,0.4805,0.4867,0.4951,0.4998,0.5039,0.5113,0.5164,0.5203,0.5255,0.5341,0.539,0.5477,0.5548,0.5686,0.5741,0.5824,0.5831,0.5885,0.5844,0.5834,0.5835,0.5832,0.584,0.5893,0.5894,0.5895,0.5896,0,0.4919,0.4938,0.5008,0.5087,0.5147,0.5211,0.5275,0.5313,0.5363,0.5421,0.5508,0.5564,0.5674,0.5761,0.5849,0.5893,0.5905,0.5908,0.5927,0.592,0.5902,0.5915,0.5755,0.5905,0.5904,0.5903,0.5903,0.5903,0.4996,0.5053,0.5121,0.52,0.5252,0.5312,0.5371,0.5416,0.5489,0.5581,0.56,0.5693,0.5765,0.5883,0.5931,0.6006,0.5996,0.6021,0.6028,0.6034,0.6038,0.5888,0.6022,0.6022,0.6021,0.6021,0.6021,0,0.5113,0.5158,0.523,0.5319,0.5382,0.5384,0.5456,0.5509,0.559,0.5655,0.5724,0.5826,0.5911,0.5973,0.606,0.6108,0.6116,0.613,0.6128,0.6139,0.6041,0.6018,0.6123,0.6123,0.6123,0.6123,0.6123,0.6123,0.5182,0.5278,0.5305,0.5428,0.5473,0.5563,0.5604,0.566,0.5712,0.5824,0.5894,0.5933,0.5998,0.609,0.6169,0.6185,0.6217,0.6232,0.6249,0.6156,0.6146,0.6135,0.6114,0.6238,0.6238,0.6341,0.6342,0.6343]},{"header":{"parameterUnit":"m.s-1","parameterCategory":1,"la1":30.2991,"la2":30.254,"lo1":-89.0895,"lo2":-89.0444,"dy":0.0017,"dx":0.0017,"nx":28,"ny":28,"refTime":"2025-02-11T09:00:00:Z","depth":0,"parameterNumber":3,"parameterNumberName":"V-component_of_WINDS"},"data":[0,0,0,0,0,0,0,0,0,0,0,0,0,0,0,0,0,0,0,0,0,0,0,0,0,0,0,0,0,0,0,0,0,0,0,0,0,0,0,0,0,0,0,0,0,0,0,0,0,0,0,0,0,0,0,0,0,0,7.4793,7.4795,0,7.5032,7.5034,7.5037,7.5063,7.5061,7.5059,7.5056,7.5298,7.5306,7.5314,0,0,0,0,0,0,0,0,0,0,0,0,0,7.4357,7.4365,7.4792,7.4796,7.4799,7.5031,7.5034,7.5038,7.5064,7.5061,7.5058,7.5055,7.5295,7.5305,7.5315,0,0,0,0,0,0,0,0,0,0,0,0,0,7.4566,7.4367,7.4792,7.484,7.4846,7.5031,7.5035,7.5039,7.5064,7.5061,7.5057,7.5054,7.5291,7.5304,7.5317,7.5469,0,0,7.5356,7.5362,0,0,0,0,0,0,0,0,7.4554,7.4582,7.483,7.4837,7.4845,7.5014,7.4969,7.5183,7.5065,7.4982,7.5056,7.5052,7.5206,7.5226,7.5278,7.548,7.549,7.5357,7.5365,7.5371,7.5375,0,0,0,0,0,0,0,7.4539,7.4571,7.4887,7.4833,7.4842,7.4848,7.4874,7.501,7.5111,7.4989,7.4991,7.5019,7.5209,7.5266,7.5284,7.5494,7.5357,7.5369,7.5377,7.5382,7.5834,7.5838,0,0,0,0,0,0,7.4516,7.4559,7.4879,7.4894,7.4687,7.4859,7.4888,7.4963,7.5109,7.5128,7.5022,7.502,7.5245,7.5269,7.5293,7.5482,7.5371,7.5383,7.539,7.583,7.5835,7.5839,0,0,0,0,0,0,7.4507,7.4545,7.487,7.4728,7.4769,7.4871,7.4955,7.497,7.5026,7.5135,7.5153,7.5061,7.5243,7.5274,7.5425,7.5491,7.5389,7.5401,7.5825,7.5831,7.5837,7.586,0,0,0,0,0,0,7.4494,7.4541,7.46,7.4729,7.4777,7.4999,7.4959,7.4977,7.5049,7.5048,7.5176,7.5194,7.5243,7.5406,7.5438,7.5507,7.5411,7.5819,7.5828,7.5835,7.5854,7.5867,7.5877,0,0,0,0,0,7.4479,7.4596,7.4603,7.4642,7.4853,7.5003,7.5031,7.5085,7.5054,7.5115,7.5184,7.519,7.5478,7.5421,7.5458,7.5531,7.5815,7.5825,7.5834,7.5849,7.5864,7.5877,0,0,0,0,0,0,7.4471,7.4614,7.4623,7.4786,7.4883,7.5007,7.5085,7.5099,7.5206,7.52,7.5262,7.5291,7.544,7.55,7.5434,7.5687,7.5644,7.5661,7.5642,7.5657,7.5669,7.5652,7.5422,0,0,0,0,0,7.4489,7.4599,7.4717,7.485,7.4898,7.4983,7.505,7.5084,7.5186,7.5227,7.5307,7.5405,7.5518,7.5591,7.57,7.5863,7.5891,7.5931,7.5942,7.5951,7.5966,7.6058,7.6077,7.5871,7.5871,7.587,0,0,7.4526,7.4617,7.4683,7.4851,7.4929,7.5042,7.5017,7.5137,7.5221,7.5244,7.5393,7.5455,7.5569,7.5727,7.58,7.5781,7.6029,7.5964,7.597,7.598,7.607,7.6089,7.6107,7.5877,7.5876,7.5875,0,0,7.4651,7.4731,7.4851,7.4931,7.5051,7.5107,7.5136,7.526,7.5303,7.5453,7.5473,7.5573,7.5766,7.5846,7.5912,7.6069,7.6079,7.6103,7.6164,7.6253,7.6269,7.6284,7.6341,7.6361,7.6117,7.6117,7.6117,0,7.4682,7.4854,7.4911,7.5031,7.5105,7.5132,7.5254,7.5328,7.5477,7.5527,7.5504,7.5748,7.5826,7.6004,7.6042,7.6094,7.6129,7.6089,7.6262,7.6278,7.6292,7.6348,7.6369,7.6119,7.6119,7.6119,7.6119,0,7.4886,7.5005,7.5087,7.5233,7.5315,7.5436,7.5511,7.5587,7.5614,7.5672,7.5825,7.592,7.605,7.6094,7.6121,7.6277,7.6261,7.625,7.6208,7.6313,7.6367,7.6388,7.6122,7.6122,7.6121,7.612,0,0,7.5014,7.5191,7.522,7.5287,7.5422,7.5515,7.5636,7.5765,7.583,7.5932,7.6036,7.6199,7.6189,7.6264,7.63,7.6378,7.6498,7.6357,7.636,7.6381,7.6677,7.6686,7.671,7.6505,7.6509,7.6512,7.6668,0,7.5156,7.5376,7.5431,7.5618,7.5729,7.5757,7.5863,7.5957,7.6015,7.6117,7.618,7.6295,7.6273,7.6319,7.6397,7.6467,7.6559,7.6456,7.6602,7.6607,7.6575,7.6738,7.6748,7.689,7.6689,7.6693,7.6695,0,7.5352,7.546,7.5659,7.5781,7.583,7.5924,7.6048,7.6145,7.6252,7.6288,7.6373,7.6401,7.6529,7.6479,7.6656,7.6585,7.6648,7.6691,7.6698,7.6715,7.6658,7.676,7.6937,7.6959,7.6728,7.6726,7.6723,0,7.5427,7.5622,7.5767,7.5823,7.5969,7.6035,7.6099,7.6202,7.6277,7.6384,7.6433,7.6552,7.6618,7.671,7.677,7.6728,7.6942,7.6897,7.6976,7.6975,7.7021,7.7017,7.7211,7.7059,7.7058,7.7058,7.7057,0,7.5582,7.5702,7.5804,7.5893,7.6029,7.6091,7.6223,7.6287,7.638,7.6481,7.6511,7.6606,7.6679,7.6783,7.683,7.697,7.6999,7.7032,7.7043,7.7031,7.7027,7.7074,7.7066,7.7064,7.7062,7.7061,7.706,0,7.569,7.5762,7.5922,7.6048,7.6082,7.6177,7.6284,7.6371,7.643,7.6558,7.6592,7.6683,7.6808,7.6877,7.7032,7.7064,7.7221,7.7226,7.7185,7.719,7.7266,7.7259,7.7498,7.7533,7.7355,7.7357,7.7358,0,7.5784,7.5878,7.6014,7.6086,7.6151,7.6264,7.6341,7.6405,7.6484,7.6614,7.6685,7.6812,7.6917,7.7114,7.7194,7.7313,7.7323,7.7398,7.7341,7.7325,7.7326,7.732,7.733,7.7409,7.741,7.7412,7.7413,0,7.5945,7.5977,7.6087,7.621,7.6301,7.6401,7.6499,7.6555,7.6636,7.6722,7.6851,7.6932,7.7092,7.7218,7.7343,7.7408,7.7424,7.743,7.7455,7.7444,7.7417,7.7434,7.7214,7.7425,7.7423,7.7423,7.7422,7.7421,7.6051,7.6136,7.6246,7.6368,7.6449,7.6541,7.663,7.6701,7.681,7.6946,7.6977,7.7113,7.7218,7.7389,7.7457,7.7563,7.7549,7.7584,7.7594,7.7602,7.7606,7.7399,7.7586,7.7586,7.7585,7.7585,7.7585,0,7.6214,7.6287,7.6398,7.6537,7.6633,7.6641,7.6751,7.683,7.695,7.7047,7.7151,7.7299,7.7421,7.751,7.7635,7.7703,7.7714,7.7734,7.773,7.7745,7.7611,7.7578,7.7723,7.7723,7.7723,7.7723,7.7723,7.7723,7.6311,7.6457,7.6502,7.6688,7.6759,7.6895,7.6957,7.7042,7.712,7.7285,7.7387,7.7445,7.754,7.7672,7.7784,7.7807,7.7852,7.7871,7.7895,7.7769,7.7754,7.774,7.7709,7.788,7.788,7.8021,7.8023,7.8023]}]]